FORMOSAT 7-3 (44343 NORAD) Tracking and Keplerian Element Data

This shows tracking and keplerian element data for the satellite.

Feedback or suggestion? Click here.




ElementValue
Catalog44343
NameFORMOSAT 7-3
Epoch Orbit399
Epoch Day203.79603572
Epoch Year2019
RAAN31.6608
Inclination24.0032
Eccentricity0.0012404
Argument of Perigee137.2082
Mean Anonmoly222.9392
Mean Motion14.53157475
Decay Rate2.3E-06
L11 44343U 19036E 19203.79603572 .00000230 00000-0 42915-5 0 9992
L22 44343 24.0032 31.6608 0012404 137.2082 222.9392 14.53157475 3991

Live tracking and technical data element details for FORMOSAT 7-3 (NORAD 44343). FORMOSAT 7-3 can be tracked NOW for your location showing map with azimuth and elevation plus other details from your city location.

Track the satellite on the map from your city or location and see movement details for azimuth, elevation, latitude, longitude, range, height, and movement on the map or in text.







IsCatalogInMostPopularTable: catalog: 44343, numindb: 22
Update: records affected: 1



GetName: 44343 FORMOSAT 7-3

Hit Count: updated at: Wed, 23 Oct 2019 00:46:03 GMT